Location: Elaina
(34.1445°N, 106.7742°W)
Time: 11:16:51
(UTC+00:00)

NOSS 3-1 (C) - Pass Details

Date: 22 March 2026
Orbit: 618 x 1583 km, 63.4° (Epoch: 10 January)

Event Time Altitude Azimuth Distance (km) Brightness Sun altitude
Rises 03:09:11 0° 213° (SSW) 2,875 6.2 -23.1°
Reaches altitude 10° 03:11:21 10° 215° (SW) 1,987 5.3 -23.5°
Maximum altitude 03:15:44 77° 302° (WNW) 684 2.7 -24.4°
Enters shadow 03:19:06 20° 26° (NNE) 1,611 4.6 -25.0°
